Regional Weather Roundup
Issued by NWS Little Rock, AR

Home | Current Version | Previous Version | Graphics & Text | Print | Product List | Glossary On
Versions: 1 2 3 4 5 6 7 8 9 10 11 12 13 14 15 16 17 18 19 20 21 22 23 24 25 26 27 28 29 30 31 32 33 34 35 36 37 38 39 40 41 42 43 44 45 46 47 48 49 50
000
ASUS44 KLZK 231705
RWRLZK

WEATHER ROUNDUP FOR ARKANSAS
NATIONAL WEATHER SERVICE LITTLE ROCK AR
1200 PM CDT SAT AUG 23 2014

NOTE: "FAIR" INDICATES FEW OR NO CLOUDS BELOW 12,000 FEET WITH NO
SIGNIFICANT WEATHER AND/OR OBSTRUCTIONS TO VISIBILITY.

ARZ001-003-010-029-231800-
NORTHWEST ARKANSAS

CITY           SKY/WX    TMP DP  RH WIND       PRES   REMARKS
FAYETTEVILLE   SUNNY     90  69  50 SW10      30.03F HX  94
FORT SMITH     SUNNY     92  71  50 S8        30.00F HX  98
HARRISON       SUNNY     91  69  48 VRB5      30.04F HX  96
BENTONVILLE    SUNNY     91  70  49 SW10      30.05F HX  97
ROGERS         SUNNY     91  67  44 SW12G17   30.04F HX  94
SILOAM SPGS    SUNNY     90  70  51 SW10      30.04S HX  95
HIGHFILL       SUNNY     91  69  48 SW10      30.03F HX  96
SPRINGDALE     SUNNY     90  68  48 SW12      30.06F HX  93
$$

ARZ004-005-016-231800-
NORTH CENTRAL ARKANSAS

CITY           SKY/WX    TMP DP  RH WIND       PRES   REMARKS
BATESVILLE     SUNNY     93  72  49 W6        30.00F HX 100
FLIPPIN        SUNNY     93  66  40 W9        30.01F HX  96
MTN HOME       SUNNY     94  69  44 CALM      30.01F HX  99
$$

ARZ040-041-231800-
WEST CENTRAL ARKANSAS

CITY           SKY/WX    TMP DP  RH WIND       PRES   REMARKS
MENA           SUNNY     90  72  55 CALM      30.06S HX  96
MOUNT IDA      SUNNY     90  73  57 VRB7      30.03S HX  98
$$

ARZ009-017-025-026-028-231800-
NORTHEAST ARKANSAS

CITY           SKY/WX    TMP DP  RH WIND       PRES   REMARKS
CORNING        LGT RAIN  93  75  55 S3        29.99F HX 104
JONESBORO      SUNNY     94  72  48 N6        29.99F HX 102
NEWPORT        SUNNY     94  75  53 NW5       30.01F HX 105
WALNUT RIDGE   SUNNY     90  73  58 N7        29.98S HX  98
BLYTHEVILLE    SUNNY     91  80  70 SW5       29.99F HX 109
$$

ARZ022-023-033-042-044-231800-
CENTRAL ARKANSAS

CITY           SKY/WX    TMP DP  RH WIND       PRES   REMARKS
LITTLE ROCK    SUNNY     93  71  48 S7        30.02S HX 100
N LITTLE ROCK  SUNNY     90  74  59 W6        30.02S HX  99
JACKSONVILLE   SUNNY     91  75  59 W6        30.02S HX 101
SEARCY           N/A     94  74  52 CALM        N/A  HX 104
HOT SPRINGS    SUNNY     91  74  57 W5        30.04S HX 100
RUSSELLVILLE   SUNNY     92  72  51 NW8       30.02S HX  99
CLINTON        FAIR      97  72  44 W7        30.01F HAZE    HX 105
$$

ARZ036-231800-
EAST ARKANSAS

CITY           SKY/WX    TMP DP  RH WIND       PRES   REMARKS
WEST MEMPHIS   SUNNY     92  76  59 NW6       29.99F HX 104
$$

ARZ050-053-066-070-073-231800-
SOUTHWEST ARKANSAS

CITY           SKY/WX    TMP DP  RH WIND       PRES   REMARKS
ARKADELPHIA    FAIR      91  78  65 SW8       30.03F HX 105
CAMDEN         SUNNY     91  73  55 W3        30.04S HX 100
TEXARKANA      SUNNY     91  73  55 S5        30.04S HX  99
EL DORADO      SUNNY     89  73  59 VRB3      30.05F HX  97
DE QUEEN       SUNNY     87  73  62 W6        30.02S HX  94
$$

ARZ056-057-069-231800-
SOUTHEAST ARKANSAS

CITY           SKY/WX    TMP DP  RH WIND       PRES   REMARKS
PINE BLUFF     SUNNY     90  72  55 W8        30.03S HX  97
STUTTGART      SUNNY     91  75  59 W7        30.03S HX 102
MONTICELLO     SUNNY     90  74  59 SW7       30.04S HX  99

$$





USA.gov is the U.S. government's official web portal to all federal, state and local government web resources and services.